Tracking 27122 objects as of 26-Mar-2023
HD Live streaming from Space Station
objects crossing your sky now

STARLINK-2572

Track STARLINK-2572 now!
10-day predictions
STARLINK-2572 is classified as:


NORAD ID: 48372
Int'l Code: 2021-038V
Perigee: 553.2 km
Apogee: 555.0 km
Inclination: 53.1 °
Period: 95.6 minutes
Semi major axis: 6925 km
RCS: Unknown
Launch date: May 4, 2021
Source: United States (US)
Launch site: AIR FORCE EASTERN TEST RANGE (AFETR)
Your satellite tracking list
Your tracking list is empty




NASA's NSSDC Master Catalog

Two Line Element Set (TLE):
1 48372U 21038V   23084.89564796  .00035458  00000-0  23825-2 0  9996
2 48372  53.0531 158.9996 0001264 104.4453 255.6677 15.06475959104413
Source of the keplerian elements: AFSPC